When you browse on this site, cookies collect data to enhance your experience and personalize the content and advertising you see.
Visit our Privacy Policy to learn more. By continuing to use the site, you agree to this use of cookies and data.
  • In Österreich
  • Länderverzeichnis
  • Für 7 Tage
  • Wassertemperatur
  • Wetterkarte
  • News
  • Widgets
  • user-avatar
    Anmelden

    Stündliche Wetter Laszkar Gah

    Heute, 10 Dezember, Dienstag

    Zeit Temperatur Niederschläge Wind Luftdruck Luftfeuchtigkeit
    00:00 +15°C° 0 mm 4 m/S 695 mmHg 47%
    01:00 +15°C° 0 mm 5 m/S 695 mmHg 50%
    02:00 +14°C° 0.6 mm 5 m/S 695 mmHg 54%
    03:00 +14°C° 0.6 mm 5 m/S 694 mmHg 59%
    04:00 +13°C° 0.6 mm 5 m/S 694 mmHg 63%
    05:00 +13°C° 1 mm 5 m/S 694 mmHg 66%
    06:00 +13°C° 1 mm 4 m/S 695 mmHg 68%
    07:00 +13°C° 1 mm 3 m/S 695 mmHg 71%
    08:00 +14°C° 0.4 mm 4 m/S 695 mmHg 67%
    09:00 +15°C° 0.4 mm 4 m/S 696 mmHg 63%
    10:00 +16°C° 0.4 mm 5 m/S 696 mmHg 58%
    11:00 +18°C° 0.1 mm 4 m/S 695 mmHg 57%
    12:00 +18°C° 0.1 mm 3 m/S 695 mmHg 55%
    13:00 +19°C° 0.1 mm 3 m/S 695 mmHg 53%
    14:00 +19°C° 0 mm 2 m/S 694 mmHg 54%
    15:00 +19°C° 0 mm 2 m/S 694 mmHg 54%
    16:00 +20°C° 0 mm 1 m/S 694 mmHg 54%
    17:00 +19°C° 0.1 mm 1 m/S 694 mmHg 58%
    18:00 +18°C° 0.1 mm 1 m/S 694 mmHg 61%
    19:00 +16°C° 0.1 mm 1 m/S 694 mmHg 65%
    20:00 +16°C° 0 mm 1 m/S 694 mmHg 66%
    21:00 +16°C° 0 mm 1 m/S 694 mmHg 67%
    22:00 +15°C° 0 mm 1 m/S 694 mmHg 68%
    23:00 +15°C° 0 mm 1 m/S 694 mmHg 69%

    Morgen, 11 Dezember, Mittwoch

    Zeit Temperatur Niederschläge Wind Luftdruck Luftfeuchtigkeit
    00:00 +14°C° 0 mm 1 m/S 694 mmHg 71%
    01:00 +14°C° 0 mm 1 m/S 693 mmHg 72%
    02:00 +14°C° 0 mm 1 m/S 693 mmHg 73%
    03:00 +13°C° 0 mm 1 m/S 693 mmHg 74%
    04:00 +13°C° 0 mm 1 m/S 692 mmHg 74%
    05:00 +13°C° 0 mm 1 m/S 692 mmHg 74%
    06:00 +13°C° 0 mm 1 m/S 693 mmHg 73%
    07:00 +13°C° 0 mm 1 m/S 693 mmHg 73%
    08:00 +14°C° 0 mm 2 m/S 693 mmHg 67%
    09:00 +15°C° 0 mm 2 m/S 693 mmHg 62%
    10:00 +17°C° 0 mm 2 m/S 694 mmHg 56%
    11:00 +17°C° 0 mm 2 m/S 693 mmHg 51%
    12:00 +18°C° 0 mm 2 m/S 692 mmHg 46%
    13:00 +19°C° 0 mm 1 m/S 692 mmHg 41%
    14:00 +17°C° 0.1 mm 2 m/S 691 mmHg 44%
    15:00 +16°C° 0.1 mm 3 m/S 691 mmHg 46%
    16:00 +14°C° 0.1 mm 4 m/S 691 mmHg 49%
    17:00 +13°C° 0.3 mm 5 m/S 691 mmHg 53%
    18:00 +13°C° 0.3 mm 5 m/S 691 mmHg 57%
    19:00 +11°C° 0.3 mm 6 m/S 691 mmHg 61%
    20:00 +11°C° 0.1 mm 6 m/S 691 mmHg 62%
    21:00 +11°C° 0.1 mm 6 m/S 691 mmHg 64%
    22:00 +11°C° 0.1 mm 6 m/S 691 mmHg 66%
    23:00 +10°C° 0 mm 5 m/S 691 mmHg 67%

    übermorgen, 12 Dezember, Donnerstag

    Zeit Temperatur Niederschläge Wind Luftdruck Luftfeuchtigkeit
    00:00 +11°C° 0 mm 4 m/S 691 mmHg 69%
    01:00 +12°C° 0 mm 2 m/S 691 mmHg 71%
    02:00 +12°C° 0 mm 2 m/S 691 mmHg 71%
    03:00 +12°C° 0 mm 2 m/S 690 mmHg 71%
    04:00 +12°C° 0 mm 1 m/S 690 mmHg 71%
    05:00 +10°C° 0 mm 2 m/S 691 mmHg 72%
    06:00 +10°C° 0 mm 2 m/S 691 mmHg 73%
    07:00 +10°C° 0 mm 2 m/S 691 mmHg 74%
    08:00 +11°C° 0 mm 3 m/S 692 mmHg 69%
    09:00 +12°C° 0 mm 3 m/S 692 mmHg 64%
    10:00 +13°C° 0 mm 4 m/S 692 mmHg 59%
    11:00 +13°C° 0 mm 5 m/S 692 mmHg 55%
    12:00 +14°C° 0 mm 5 m/S 691 mmHg 51%
    13:00 +15°C° 0 mm 6 m/S 691 mmHg 48%
    14:00 +15°C° 0.4 mm 6 m/S 690 mmHg 47%
    15:00 +14°C° 0.4 mm 7 m/S 690 mmHg 47%
    16:00 +14°C° 0.4 mm 7 m/S 690 mmHg 47%
    17:00 +14°C° 0 mm 7 m/S 690 mmHg 47%
    18:00 +13°C° 0 mm 6 m/S 690 mmHg 48%
    19:00 +11°C° 0 mm 6 m/S 691 mmHg 49%
    20:00 +11°C° 0 mm 6 m/S 691 mmHg 50%
    21:00 +10°C° 0 mm 5 m/S 691 mmHg 50%
    22:00 +10°C° 0 mm 5 m/S 691 mmHg 51%
    23:00 +9°C° 0 mm 5 m/S 691 mmHg 53%

    13 Dezember, Freitag

    Zeit Temperatur Niederschläge Wind Luftdruck Luftfeuchtigkeit
    00:00 +9°C° 0 mm 5 m/S 691 mmHg 55%
    01:00 +8°C° 0 mm 5 m/S 691 mmHg 57%
    02:00 +7°C° 0 mm 5 m/S 691 mmHg 60%
    03:00 +7°C° 0 mm 5 m/S 691 mmHg 62%
    04:00 +6°C° 0 mm 5 m/S 691 mmHg 64%
    05:00 +6°C° 0 mm 4 m/S 692 mmHg 66%
    06:00 +7°C° 0 mm 3 m/S 692 mmHg 68%
    07:00 +5°C° 0 mm 3 m/S 693 mmHg 70%
    08:00 +7°C° 0 mm 3 m/S 693 mmHg 65%
    09:00 +9°C° 0 mm 2 m/S 694 mmHg 59%
    10:00 +10°C° 0 mm 2 m/S 694 mmHg 54%
    11:00 +12°C° 0 mm 2 m/S 694 mmHg 49%
    12:00 +12°C° 0 mm 2 m/S 694 mmHg 44%
    13:00 +12°C° 0 mm 3 m/S 693 mmHg 40%
    14:00 +13°C° 0 mm 2 m/S 693 mmHg 38%
    15:00 +14°C° 0 mm 1 m/S 693 mmHg 37%
    16:00 +14°C° 0 mm 1 m/S 693 mmHg 35%
    17:00 +13°C° 0 mm 1 m/S 693 mmHg 38%
    18:00 +13°C° 0 mm 2 m/S 693 mmHg 40%
    19:00 +12°C° 0 mm 2 m/S 694 mmHg 42%
    20:00 +11°C° 0 mm 3 m/S 694 mmHg 44%
    21:00 +10°C° 0 mm 3 m/S 694 mmHg 45%
    22:00 +10°C° 0 mm 4 m/S 694 mmHg 46%
    23:00 +10°C° 0 mm 4 m/S 694 mmHg 48%

    14 Dezember, Samstag

    Zeit Temperatur Niederschläge Wind Luftdruck Luftfeuchtigkeit
    00:00 +8°C° 0 mm 5 m/S 693 mmHg 50%
    01:00 +8°C° 0 mm 5 m/S 693 mmHg 52%
    02:00 +8°C° 0 mm 6 m/S 693 mmHg 53%
    03:00 +8°C° 0 mm 6 m/S 692 mmHg 53%
    04:00 +8°C° 0 mm 6 m/S 692 mmHg 53%
    05:00 +8°C° 0 mm 6 m/S 692 mmHg 52%
    06:00 +9°C° 0 mm 6 m/S 693 mmHg 50%
    07:00 +9°C° 0 mm 6 m/S 693 mmHg 49%
    08:00 +9°C° 0 mm 7 m/S 694 mmHg 48%
    09:00 +10°C° 0 mm 7 m/S 694 mmHg 47%
    10:00 +10°C° 0 mm 8 m/S 695 mmHg 45%
    11:00 +10°C° 0 mm 8 m/S 695 mmHg 48%
    12:00 +10°C° 0 mm 8 m/S 694 mmHg 51%
    13:00 +10°C° 0 mm 8 m/S 694 mmHg 54%
    14:00 +10°C° 0 mm 8 m/S 694 mmHg 57%
    15:00 +9°C° 0 mm 8 m/S 694 mmHg 59%
    16:00 +9°C° 0 mm 8 m/S 694 mmHg 61%
    17:00 +9°C° 0 mm 7 m/S 695 mmHg 64%
    18:00 +8°C° 0 mm 7 m/S 695 mmHg 67%
    19:00 +8°C° 0 mm 7 m/S 695 mmHg 70%
    20:00 +8°C° 0 mm 7 m/S 695 mmHg 71%
    21:00 +7°C° 0 mm 6 m/S 696 mmHg 72%
    22:00 +7°C° 0 mm 6 m/S 696 mmHg 72%
    23:00 +7°C° 0 mm 6 m/S 696 mmHg 73%

    15 Dezember, Sonntag

    Zeit Temperatur Niederschläge Wind Luftdruck Luftfeuchtigkeit
    00:00 +7°C° 0 mm 5 m/S 696 mmHg 73%
    01:00 +7°C° 0 mm 5 m/S 695 mmHg 73%
    02:00 +7°C° 0 mm 5 m/S 695 mmHg 73%
    03:00 +7°C° 0 mm 5 m/S 695 mmHg 73%
    04:00 +7°C° 0 mm 5 m/S 695 mmHg 73%
    05:00 +7°C° 0 mm 5 m/S 695 mmHg 73%
    06:00 +7°C° 0 mm 5 m/S 695 mmHg 73%
    07:00 +7°C° 0 mm 5 m/S 696 mmHg 72%
    08:00 +8°C° 0 mm 5 m/S 696 mmHg 66%
    09:00 +10°C° 0 mm 5 m/S 696 mmHg 59%
    10:00 +11°C° 0 mm 6 m/S 697 mmHg 53%
    11:00 +13°C° 0 mm 6 m/S 696 mmHg 50%
    12:00 +14°C° 0 mm 6 m/S 696 mmHg 47%
    13:00 +15°C° 0 mm 6 m/S 695 mmHg 44%
    14:00 +15°C° 0 mm 5 m/S 695 mmHg 45%
    15:00 +15°C° 0 mm 4 m/S 695 mmHg 45%
    16:00 +15°C° 0 mm 4 m/S 695 mmHg 45%
    17:00 +14°C° 0 mm 4 m/S 695 mmHg 47%
    18:00 +13°C° 0 mm 4 m/S 695 mmHg 48%
    19:00 +13°C° 0 mm 5 m/S 695 mmHg 50%
    20:00 +12°C° 0 mm 5 m/S 695 mmHg 50%
    21:00 +12°C° 0 mm 5 m/S 695 mmHg 50%
    22:00 +12°C° 0 mm 5 m/S 696 mmHg 49%
    23:00 +12°C° 0 mm 5 m/S 695 mmHg 50%
    Mehr zeigen